Regional Weather Roundup
Issued by NWS Northern Indiana

Home | Current Version | Previous Version | Graphics & Text | Print | Product List | Glossary On
Versions: 1 2 3 4 5 6 7 8 9 10 11 12 13 14 15 16 17 18 19 20 21 22 23 24 25 26 27 28 29 30 31 32 33 34 35 36 37 38 39 40 41 42 43 44 45 46 47 48 49 50
000
ASUS43 KIWX 250210
RWRIWX

KIWX WEATHER ROUNDUP
NATIONAL WEATHER SERVICE NORTHERN INDIANA
1000 PM EDT TUE MAY 24 2016

NOTE: "FAIR" INDICATES FEW OR NO CLOUDS BELOW 12,000 FEET WITH NO
SIGNIFICANT WEATHER AND/OR OBSTRUCTIONS TO VISIBILITY.

* THESE STATIONS ARE NOT UNDER NWS QUALITY CONTROL. THEY ALSO MAY NOT
  REPORT WEATHER SUCH AS PRECIPITATION OR FOG.

INZ001>027-250300-
NORTHERN INDIANA

CITY           SKY/WX    TMP DP  RH WIND       PRES   REMARKS
GARY*          MOCLDY    81  61  50 S8        29.96R
VALPARAISO     CLEAR     76  52  43 S9        29.99R
MICHIGAN CITY* PTCLDY    75  50  41 S6        29.99R
LAPORTE*       CLEAR     79  51  37 SW9       30.00R HAZE
KNOX*          PTCLDY    73  37  27 S8        29.99R
SOUTH BEND     CLEAR     73  49  42 S8        30.00R
GOSHEN         CLEAR     72  47  40 S7        30.00R
MONTICELLO*    CLEAR     74  47  38 S5        30.01R
LOGANSPORT*    PTCLDY    70  52  52 S5        30.03R
ROCHESTER*     CLOUDY    77  50  38 S6        30.02R
WARSAW*        CLEAR     72  50  46 CALM      30.01R
ANGOLA*        CLEAR     66  55  68 CALM      30.02R
FORT WAYNE     PTCLDY    69  49  48 S7        30.03R
HUNTINGTON*    CLEAR    N/A N/A N/A CALM      30.02S
MARION*        CLEAR     70  52  53 S6        30.04R

$$
INZ028>050-250300-
CENTRAL INDIANA

CITY           SKY/WX    TMP DP  RH WIND       PRES   REMARKS
LAFAYETTE      PTCLDY    73  53  49 CALM      30.01R
KOKOMO*        CLEAR     68  52  56 SW8       30.03R
MUNCIE*        CLEAR     75  48  38 S3        30.05R
INDIANAPOLIS   PTCLDY    71  56  58 S8        30.03R

$$
MIZ043>046-050>051-056>058-064>065-071>073-077>080-250300-
SOUTHWEST LOWER MICHIGAN

CITY           SKY/WX    TMP DP  RH WIND       PRES   REMARKS
BATTLE CREEK   CLEAR     73  50  44 SW3       30.01R
BENTON HARBOR  PTCLDY    70  55  59 SE3       29.97R
COLDWATER*     CLEAR     67  50  55 S3        30.01R
HILLSDALE*     CLEAR     70  45  40 S5        30.03R
HOLLAND        CLOUDY    72  56  57 SE3       29.97R
GRAND RAPIDS   MOCLDY    73  54  51 S7        29.98R
KALAMAZOO      CLEAR     70  53  54 CALM      30.00R
STURGIS*       CLEAR     72  50  46 S5        30.00R
THREE RIVERS*  FAIR      72  49  45 CALM      30.00R

$$
OHZ001>008-015>018-024>025-250300-
NORTHWEST OHIO

CITY           SKY/WX    TMP DP  RH WIND       PRES   REMARKS
WAUSEON*         N/A     72  52  49 SW7       30.03R
DEFIANCE       CLOUDY    71  46  40 S6        30.03R
FINDLAY        PTCLDY    67  44  43 S7        30.04R
TOLEDO EXPRESS CLEAR     66  50  56 S3        30.02R
TOLEDO METCALF CLEAR     71  44  37 S5        30.03R
LIMA           CLEAR     68  47  46 S7        30.06R

$$
AND FOR LAKE MICHIGAN COASTAL AND OPEN LAKE BUOY OBSERVATIONS

STATION/POSITION TEMP    WIND        PRES    VSBY  WAVE
                 AIR SEA DIR/SP/G                  HT/PER
                 (F)     (DEG/KT/KT) (MB)    (MI)  (FT/S)
CALUMET HARBOR                       1013.3R
MICHIGAN CITY     81     180/  8/  9   N/A
BURNS HARBOR      81     190/ 10/ 12 1014.6R
SAINT JOSEPH      77     120/  2/  4 1015.6R
SOUTH LAKE BUOY   56 49  130/ 10/ 10 1013.6R         0
4 MI NW BRIDGMAN  70 60  160/  6/  8   N/A           0
MICHIGAN CITY     69 59  190/  8/ 10   N/A           1

$$
&&




USA.gov is the U.S. government's official web portal to all federal, state and local government web resources and services.